Regional Weather Roundup
Issued by NWS

Home | Current Version | Previous Version | Graphics & Text | Print | Product List | Glossary On
Versions: 1 2 3 4 5 6 7 8 9 10 11 12 13 14 15 16 17 18 19 20 21 22 23 24 25 26 27 28 29 30 31 32 33 34 35 36 37 38 39 40 41 42 43 44 45 46 47 48 49 50
000
ASUS43 KOAX 201502
RWRNE

WEATHER ROUNDUP FOR NEBRASKA
NATIONAL WEATHER SERVICE OMAHA NE
1000 AM CDT THU JUL 20 2017

NOTES: SATELLITE DATA IS BEING USED TO AUGMENT CLOUD COVER ABOVE
       12000 FEET.
       "FAIR" INDICATES FEW OR NO CLOUDS BELOW 12,000 FEET WITH NO
       SIGNIFICANT WEATHER AND/OR OBSTRUCTIONS TO VISIBILITY.


NEZ001>004-019>022-054>056-201600-
NEBRASKA PANHANDLE

CITY           SKY/WX    TMP DP  RH WIND       PRES   REMARKS
SCOTTSBLUFF    CLOUDY    73  64  73 N7        30.16R
ALLIANCE       CLOUDY    71  65  81 NW5       30.16R
CHADRON        MOSUNNY   78  63  59 S7        30.11S
GORDON         FAIR      75  64  69 SW3       30.13S
KIMBALL        MOSUNNY   76  59  56 S5        30.23R
SIDNEY         CLOUDY    75  59  57 VRB3      30.18S
$$

NEZ057>060-069>072-079>082-201600-
SOUTHWEST NEBRASKA

CITY           SKY/WX    TMP DP  RH WIND       PRES   REMARKS
NORTH PLATTE   CLOUDY    79  63  57 E14       30.04F
IMPERIAL       MOSUNNY   81  59  47 E13       30.05R
LEXINGTON      PTSUNNY   78  67  69 E3        30.03S
MCCOOK         MOSUNNY   83  61  47 SE9       30.00F
OGALLALA       CLOUDY    77  64  63 NE7       30.07F
$$

NEZ005>010-023>029-035>040-094-201600-
NORTH CENTRAL NEBRASKA

CITY           SKY/WX    TMP DP  RH WIND       PRES   REMARKS
VALENTINE      CLOUDY    81  67  62 CALM      30.07R
AINSWORTH      CLOUDY    74  70  89 N3        30.08R
BROKEN BOW     CLOUDY    78  65  63 N12       30.05S
O`NEILL        CLOUDY    75  73  93 CALM      30.05S
ORD            PTSUNNY   80  68  66 E5        30.00F
THEDFORD       CLOUDY    73  69  87 CALM      30.08R
$$

NEZ041-046>049-061>064-073>077-083>087-201600-
SOUTH CENTRAL NEBRASKA

CITY           SKY/WX    TMP DP  RH WIND       PRES   REMARKS
GRAND ISLAND   CLOUDY    81  70  69 E5        30.02R
AURORA         CLOUDY    80  71  72 NE5       30.01S
HASTINGS       MOSUNNY   81  68  64 S7        30.01S
HEBRON         SUNNY     85  68  56 W6        30.01S
HOLDREGE       CLOUDY    79  65  60 S6        30.00F
KEARNEY        CLOUDY    81  65  58 CALM      30.03R
YORK           PTSUNNY   82  70  65 NE3       30.01S
$$

NEZ011>018-030>034-042>045-201600-
NORTHEAST NEBRASKA

CITY           SKY/WX    TMP DP  RH WIND       PRES   REMARKS
NORFOLK        CLOUDY    84  70  62 E5        30.00S
ALBION         PTSUNNY   82  71  69 E3        30.02S
BLAIR          PTSUNNY   84  73  68 SW3       29.97S HX  90
COLUMBUS       MOSUNNY   87  72  60 E6        30.01R HX  93
FREMONT        MOSUNNY   84  72  66 W3        29.99R
TEKAMAH        CLOUDY    87  75  67 N3        29.96R HX  96
WAYNE          CLOUDY    85  79  81 N3        29.99S HX  98
$$

NEZ050>053-065>068-078-088>093-201600-
SOUTHEAST NEBRASKA

CITY           SKY/WX    TMP DP  RH WIND       PRES   REMARKS
LINCOLN        MOSUNNY   85  69  58 VRB3      30.00R
OMAHA EPPLEY   PTSUNNY   88  69  53 SW5       29.95S HX  92
BEATRICE       SUNNY     86  71  60 S9        29.99F HX  91
FALLS CITY     SUNNY     87  74  64 SW5       29.99S HX  95
NEBRASKA CITY  SUNNY     83  75  75 SW7       29.99S HX  90
PLATTSMOUTH    MOSUNNY   83  72  69 S7        29.99F
$$

NEZ044-045-051>053-067-201600-
OMAHA AREA

CITY           SKY/WX    TMP DP  RH WIND       PRES   REMARKS
OMAHA EPPLEY   PTSUNNY   88  69  53 SW5       29.95S HX  92
BLAIR          PTSUNNY   84  73  68 SW3       29.97S HX  90
FREMONT        MOSUNNY   84  72  66 W3        29.99R
MILLARD        CLOUDY    88  72  59 SW5       29.97R HX  95
OFFUTT AFB     CLOUDY    85  71  63 SW8       29.96S
PLATTSMOUTH    MOSUNNY   83  72  69 S7        29.99F
WAHOO          FAIR      85  72  64 W3        29.98R HX  91
$$




USA.gov is the U.S. government's official web portal to all federal, state and local government web resources and services.